Goodland, KS

9:21 PM MST on December 10, 2016 (GMT -0700)
Renner-Goodland Municipal

Weather History for KGLD - September, 2013

Change the Weather History Date:

Saturday, September 7, 2013

  Actual Average Record
Temperature  
Mean Temperature 81 °F 68 °F  
Max Temperature 100 °F 83 °F 102 °F (1971)
Min Temperature 62 °F 54 °F 39 °F (1956)
Degree Days  
Heating Degree Days 0 2  
Month to date heating degree days 0 8  
Since 1 July heating degree days 7 20  
Cooling Degree Days 16 5  
Month to date cooling degree days 97 40  
Year to date cooling degree days 1095 873  
Growing Degree Days 31 (Base 50)    
Moisture  
Dew Point 46 °F    
Average Humidity 33    
Maximum Humidity 52    
Minimum Humidity 14    
Precipitation  
Precipitation 0.00 in 0.04 in 2.33 in (1963)
Month to date precipitation 0.00 0.33  
Year to date precipitation 8.79 16.23  
Snow  
Snow 0.00 in 0.00 in - ()
Month to date snowfall 0.0 0.0  
Since 1 July snowfall 0.0 0.0  
Since 1 September snowfall 0.0 0.0  
Snow Depth 0.00 in    
Sea Level Pressure  
Sea Level Pressure 29.89 in    
Wind  
Wind Speed 11 mph (SSW)    
Max Wind Speed 20 mph    
Max Gust Speed 26 mph    
Visibility 10 miles    
Events      
T = Trace of Precipitation, MM = Missing Value Source: NWS Daily Summary

Daily Weather History Graph

Daily Weather History Graph

Search for Another Location

Airport or City:

Trip Planner

Search our weather history database for the weather conditions in past years. The results will help you decide how hot, cold, wet, or windy it might be!

Date:

Astronomy

Sep. 07, 2013 Rise Set
Actual Time 6:20 AM MDT 7:07 PM MDT
Civil Twilight 5:53 AM MDT 7:34 PM MDT
Nautical Twilight 5:21 AM MDT 8:06 PM MDT
Astronomical Twilight 4:48 AM MDT 8:40 PM MDT
Moon 8:36 AM MDT (9/7) 8:08 PM MDT (9/7)
Length of Visible Light 13h 41m
Length of Day
12h 46m
Waxing Crescent, 5% of the Moon is Illuminated
Sep 7
Waxing Crescent
Sep 12
First Quarter
Sep 19
Full
Sep 26
Last Quarter
Oct 4
New

Hourly Weather History & Observations

Time (MDT) Temp. Dew Point Humidity Pressure Visibility Wind Dir Wind Speed Gust Speed Precip Events Conditions
12:53 AM 75.0 °F 46.0 °F 36% 29.89 in 10.0 mi SSW 12.7 mph - N/A   Clear
1:53 AM 75.0 °F 46.0 °F 36% 29.88 in 10.0 mi SW 12.7 mph - N/A   Clear
2:53 AM 75.0 °F 46.0 °F 36% 29.87 in 10.0 mi SW 13.8 mph - N/A   Clear
3:53 AM 72.0 °F 46.0 °F 40% 29.87 in 10.0 mi WSW 11.5 mph - N/A   Clear
4:53 AM 64.9 °F 46.0 °F 50% 29.90 in 10.0 mi West 10.4 mph - N/A   Clear
5:53 AM 66.0 °F 45.0 °F 47% 29.90 in 10.0 mi WSW 8.1 mph - N/A   Clear
6:53 AM 64.0 °F 45.0 °F 50% 29.93 in 10.0 mi WSW 8.1 mph - N/A   Clear
7:53 AM 70.0 °F 48.0 °F 46% 29.94 in 10.0 mi West 9.2 mph - N/A   Clear
8:53 AM 79.0 °F 51.1 °F 38% 29.94 in 10.0 mi West 8.1 mph - N/A   Clear
9:53 AM 88.0 °F 48.9 °F 26% 29.93 in 10.0 mi WNW 8.1 mph - N/A   Clear
10:53 AM 93.0 °F 45.0 °F 19% 29.93 in 10.0 mi Calm Calm - N/A   Clear
11:53 AM 95.0 °F 44.1 °F 17% 29.91 in 10.0 mi SW 9.2 mph 17.3 mph N/A   Clear
12:53 PM 99.0 °F 43.0 °F 15% 29.89 in 10.0 mi South 16.1 mph 23.0 mph N/A   Clear
1:53 PM 99.0 °F 42.1 °F 14% 29.87 in 10.0 mi SSW 11.5 mph 20.7 mph N/A   Clear
2:53 PM 99.0 °F 43.0 °F 15% 29.85 in 10.0 mi South 18.4 mph - N/A   Clear
3:53 PM 98.1 °F 41.0 °F 14% 29.85 in 10.0 mi SSW 10.4 mph 21.9 mph N/A   Clear
4:53 PM 99.0 °F 42.1 °F 14% 29.85 in 10.0 mi SE 10.4 mph - N/A   Clear
5:53 PM 96.1 °F 44.1 °F 17% 29.85 in 10.0 mi South 10.4 mph - N/A   Clear
6:53 PM 87.1 °F 46.9 °F 25% 29.86 in 10.0 mi SSE 8.1 mph - N/A   Clear
7:53 PM 80.1 °F 48.9 °F 34% 29.88 in 10.0 mi South 9.2 mph - N/A   Clear
8:53 PM 77.0 °F 48.0 °F 36% 29.88 in 10.0 mi South 9.2 mph - N/A   Clear
9:53 PM 73.9 °F 48.0 °F 40% 29.89 in 10.0 mi South 10.4 mph - N/A   Clear
10:53 PM 79.0 °F 48.0 °F 34% 29.87 in 10.0 mi SSW 12.7 mph - N/A   Clear
11:53 PM 77.0 °F 48.0 °F 36% 29.86 in 10.0 mi SSW 13.8 mph - N/A   Clear